N734SJ KBHM-KBHM

Flight info

Callsign N734SJ
Flight time N/A
Altitude 4000
Route PRACTICE APPROACHES
Aircraft C172/L-VGD/C

Departure

Time 2026-04-29 02:22
Airport Birmingham-Shuttlesworth International Airport (KBHM)

Arrival

Time N/A
Airport Birmingham-Shuttlesworth International Airport (KBHM)
Time Latitude Longitude Altitude Speed Heading
2026-04-29 02:13 33.55858 -86.74483 616 ft 0 kts 89°
2026-04-29 02:16 33.55851 -86.74478 614 ft 5 kts 194°
2026-04-29 02:16 33.55850 -86.74487 612 ft 1 kts 302°
2026-04-29 02:16 33.55842 -86.74528 612 ft 3 kts 260°
2026-04-29 02:16 33.55840 -86.74540 605 ft 0 kts 263°
2026-04-29 02:17 33.55840 -86.74547 605 ft 5 kts 276°
2026-04-29 02:17 33.55895 -86.74590 606 ft 14 kts 360°
2026-04-29 02:17 33.55981 -86.74589 608 ft 13 kts 359°
2026-04-29 02:17 33.56093 -86.74588 615 ft 16 kts
2026-04-29 02:18 33.56208 -86.74589 611 ft 16 kts
2026-04-29 02:18 33.56315 -86.74589 615 ft 15 kts 359°
2026-04-29 02:18 33.56433 -86.74588 620 ft 19 kts
2026-04-29 02:18 33.56579 -86.74587 622 ft 23 kts 359°
2026-04-29 02:19 33.56715 -86.74589 627 ft 15 kts
2026-04-29 02:19 33.56779 -86.74550 630 ft 9 kts 51°
2026-04-29 02:19 33.56833 -86.74461 629 ft 21 kts 54°
2026-04-29 02:19 33.56920 -86.74309 631 ft 20 kts 56°
2026-04-29 02:20 33.56989 -86.74189 632 ft 16 kts 57°
2026-04-29 02:20 33.57066 -86.74055 628 ft 22 kts 55°
2026-04-29 02:20 33.57145 -86.73921 634 ft 18 kts 55°
2026-04-29 02:20 33.57213 -86.73828 633 ft 9 kts
2026-04-29 02:21 33.57269 -86.73858 635 ft 7 kts 329°
2026-04-29 02:21 33.57314 -86.73902 635 ft 13 kts 307°
2026-04-29 02:21 33.57245 -86.74096 635 ft 49 kts 236°
2026-04-29 02:21 33.56980 -86.74567 642 ft 82 kts 229°
2026-04-29 02:22 33.56642 -86.75138 834 ft 83 kts 228°
2026-04-29 02:22 33.56263 -86.75667 1045 ft 84 kts 229°
2026-04-29 02:22 33.56235 -86.76308 1333 ft 81 kts 298°
2026-04-29 02:22 33.56449 -86.76948 1532 ft 87 kts 288°
2026-04-29 02:23 33.56710 -86.77565 1793 ft 84 kts 285°
2026-04-29 02:23 33.57014 -86.78183 1916 ft 87 kts 282°
2026-04-29 02:23 33.57326 -86.78804 2051 ft 88 kts 288°
2026-04-29 02:23 33.57632 -86.79427 2211 ft 86 kts 283°
2026-04-29 02:24 33.57928 -86.80052 2335 ft 87 kts 289°
2026-04-29 02:24 33.58241 -86.80668 2426 ft 87 kts 288°
2026-04-29 02:24 33.58543 -86.81287 2513 ft 88 kts 287°
2026-04-29 02:25 33.59165 -86.82523 2673 ft 87 kts 292°
2026-04-29 02:25 33.59462 -86.83122 2805 ft 85 kts 283°
2026-04-29 02:25 33.59789 -86.83720 2957 ft 87 kts 293°
2026-04-29 02:25 33.60422 -86.83856 3067 ft 107 kts 36°
2026-04-29 02:26 33.60932 -86.83238 3154 ft 106 kts 53°
2026-04-29 02:26 33.61422 -86.82564 3268 ft 109 kts 54°
2026-04-29 02:26 33.61901 -86.81889 3417 ft 106 kts 56°
2026-04-29 02:26 33.62378 -86.81205 3562 ft 108 kts 56°
2026-04-29 02:27 33.62855 -86.80507 3682 ft 109 kts 56°
2026-04-29 02:27 33.63341 -86.79809 3827 ft 109 kts 55°
2026-04-29 02:27 33.63839 -86.79119 3968 ft 109 kts 56°
2026-04-29 02:27 33.64358 -86.78382 4009 ft 123 kts 56°
2026-04-29 02:28 33.64718 -86.77843 4001 ft 125 kts 58°
2026-04-29 02:28 33.65263 -86.76990 4004 ft 132 kts 56°
2026-04-29 02:28 33.65835 -86.76110 4005 ft 135 kts 57°
2026-04-29 02:28 33.66434 -86.75204 3997 ft 140 kts 56°
2026-04-29 02:29 33.67046 -86.74278 3992 ft 141 kts 56°
2026-04-29 02:29 33.67657 -86.73370 3984 ft 138 kts 56°
2026-04-29 02:29 33.68251 -86.72469 3947 ft 135 kts 56°
2026-04-29 02:29 33.68823 -86.71559 3770 ft 136 kts 58°
2026-04-29 02:30 33.69422 -86.70665 3605 ft 137 kts 54°
2026-04-29 02:30 33.70033 -86.69808 3424 ft 133 kts 52°
2026-04-29 02:30 33.70555 -86.68873 3159 ft 144 kts 51°
2026-04-29 02:30 33.71217 -86.67979 3021 ft 145 kts 58°
2026-04-29 02:31 33.71835 -86.67054 2987 ft 140 kts 56°
2026-04-29 02:31 33.72454 -86.66213 3164 ft 128 kts 39°
2026-04-29 02:31 33.72915 -86.66070 1192 ft 105 kts 214°
2026-04-29 02:31 33.72775 -86.66213 839 ft 0 kts 258°